When you browse on this site, cookies collect data to enhance your experience and personalize the content and advertising you see.
Visit our Privacy Policy to learn more. By continuing to use the site, you agree to this use of cookies and data.
  • In Hungary
  • List of Countries
  • For 7 days
  • Water Temperature
  • Satellite Maps
  • Weather Map
  • News
  • Weather Widgets
  • user-avatar
    Login

    Hourly Weather Khambhaliya

    Today, 24 April, Wednesday

    Time Temperature Precipitation Wind Pressure Humidity
    00:00 +29°C° 0 mm 5 mps 753 mmHg 70%
    01:00 +29°C° 0 mm 5 mps 753 mmHg 73%
    02:00 +28°C° 0 mm 5 mps 753 mmHg 76%
    03:00 +28°C° 0 mm 5 mps 753 mmHg 78%
    04:00 +28°C° 0 mm 4 mps 753 mmHg 79%
    05:00 +28°C° 0 mm 5 mps 753 mmHg 78%
    06:00 +28°C° 0 mm 5 mps 753 mmHg 73%
    07:00 +29°C° 0 mm 5 mps 754 mmHg 68%
    08:00 +30°C° 0 mm 5 mps 754 mmHg 63%
    09:00 +33°C° 0 mm 5 mps 754 mmHg 52%
    10:00 +35°C° 0 mm 5 mps 754 mmHg 41%
    11:00 +37°C° 0 mm 4 mps 754 mmHg 28%
    12:00 +38°C° 0 mm 4 mps 753 mmHg 25%
    13:00 +40°C° 0 mm 4 mps 753 mmHg 22%
    14:00 +41°C° 0 mm 5 mps 753 mmHg 20%
    15:00 +41°C° 0 mm 5 mps 752 mmHg 22%
    16:00 +40°C° 0 mm 6 mps 752 mmHg 24%
    17:00 +39°C° 0 mm 6 mps 752 mmHg 25%
    18:00 +36°C° 0 mm 6 mps 752 mmHg 36%
    19:00 +34°C° 0 mm 6 mps 752 mmHg 47%
    20:00 +32°C° 0 mm 6 mps 752 mmHg 58%
    21:00 +30°C° 0 mm 6 mps 753 mmHg 63%
    22:00 +30°C° 0 mm 5 mps 753 mmHg 67%
    23:00 +29°C° 0 mm 5 mps 753 mmHg 71%

    Tomorrow, 25 April, Thursday

    Time Temperature Precipitation Wind Pressure Humidity
    00:00 +28°C° 0 mm 5 mps 753 mmHg 72%
    01:00 +28°C° 0 mm 5 mps 752 mmHg 74%
    02:00 +28°C° 0 mm 5 mps 752 mmHg 75%
    03:00 +27°C° 0 mm 5 mps 752 mmHg 78%
    04:00 +27°C° 0 mm 5 mps 752 mmHg 80%
    05:00 +27°C° 0 mm 5 mps 752 mmHg 82%
    06:00 +28°C° 0 mm 5 mps 752 mmHg 78%
    07:00 +28°C° 0 mm 4 mps 753 mmHg 74%
    08:00 +29°C° 0 mm 4 mps 753 mmHg 69%
    09:00 +33°C° 0 mm 4 mps 754 mmHg 58%
    10:00 +35°C° 0 mm 4 mps 754 mmHg 46%
    11:00 +37°C° 0 mm 4 mps 754 mmHg 35%
    12:00 +39°C° 0 mm 5 mps 754 mmHg 33%
    13:00 +40°C° 0 mm 5 mps 753 mmHg 30%
    14:00 +41°C° 0 mm 6 mps 753 mmHg 28%
    15:00 +40°C° 0 mm 6 mps 752 mmHg 32%
    16:00 +40°C° 0 mm 7 mps 752 mmHg 35%
    17:00 +39°C° 0 mm 7 mps 751 mmHg 38%
    18:00 +36°C° 0 mm 6 mps 752 mmHg 46%
    19:00 +34°C° 0 mm 6 mps 752 mmHg 54%
    20:00 +32°C° 0 mm 6 mps 752 mmHg 61%
    21:00 +32°C° 0 mm 5 mps 752 mmHg 64%
    22:00 +30°C° 0 mm 5 mps 753 mmHg 66%
    23:00 +30°C° 0 mm 4 mps 753 mmHg 68%

    Day after tomorrow, 26 April, Friday

    Time Temperature Precipitation Wind Pressure Humidity
    00:00 +30°C° 0 mm 4 mps 752 mmHg 68%
    01:00 +29°C° 0 mm 4 mps 752 mmHg 69%
    02:00 +29°C° 0 mm 4 mps 751 mmHg 69%
    03:00 +29°C° 0 mm 4 mps 751 mmHg 69%
    04:00 +29°C° 0 mm 4 mps 751 mmHg 70%
    05:00 +28°C° 0 mm 4 mps 751 mmHg 70%
    06:00 +29°C° 0 mm 4 mps 751 mmHg 65%
    07:00 +30°C° 0 mm 5 mps 752 mmHg 59%
    08:00 +32°C° 0 mm 6 mps 752 mmHg 53%
    09:00 +34°C° 0 mm 6 mps 752 mmHg 45%
    10:00 +38°C° 0 mm 6 mps 753 mmHg 36%
    11:00 +40°C° 0 mm 6 mps 753 mmHg 28%
    12:00 +41°C° 0 mm 6 mps 752 mmHg 25%
    13:00 +43°C° 0 mm 7 mps 752 mmHg 23%
    14:00 +44°C° 0 mm 7 mps 751 mmHg 21%
    15:00 +43°C° 0 mm 7 mps 751 mmHg 23%
    16:00 +41°C° 0 mm 7 mps 751 mmHg 25%
    17:00 +40°C° 0 mm 8 mps 750 mmHg 27%
    18:00 +38°C° 0 mm 7 mps 751 mmHg 33%
    19:00 +35°C° 0 mm 7 mps 751 mmHg 38%
    20:00 +34°C° 0 mm 6 mps 751 mmHg 44%
    21:00 +33°C° 0 mm 6 mps 752 mmHg 46%
    22:00 +33°C° 0 mm 5 mps 752 mmHg 48%
    23:00 +32°C° 0 mm 5 mps 752 mmHg 50%

    27 April, Saturday

    Time Temperature Precipitation Wind Pressure Humidity
    00:00 +32°C° 0 mm 5 mps 752 mmHg 53%
    01:00 +30°C° 0 mm 5 mps 752 mmHg 56%
    02:00 +30°C° 0 mm 5 mps 751 mmHg 59%
    03:00 +29°C° 0 mm 5 mps 751 mmHg 61%
    04:00 +29°C° 0 mm 5 mps 751 mmHg 64%
    05:00 +29°C° 0 mm 5 mps 751 mmHg 67%
    06:00 +30°C° 0 mm 5 mps 752 mmHg 62%
    07:00 +30°C° 0 mm 6 mps 752 mmHg 57%
    08:00 +32°C° 0 mm 6 mps 753 mmHg 53%
    09:00 +34°C° 0 mm 6 mps 753 mmHg 44%
    10:00 +36°C° 0 mm 6 mps 753 mmHg 36%
    11:00 +39°C° 0 mm 7 mps 753 mmHg 27%
    12:00 +40°C° 0 mm 7 mps 752 mmHg 24%
    13:00 +41°C° 0 mm 7 mps 751 mmHg 21%
    14:00 +44°C° 0 mm 7 mps 750 mmHg 17%
    15:00 +43°C° 0 mm 7 mps 750 mmHg 19%
    16:00 +41°C° 0 mm 7 mps 749 mmHg 20%
    17:00 +41°C° 0 mm 7 mps 749 mmHg 21%
    18:00 +39°C° 0 mm 7 mps 749 mmHg 28%
    19:00 +36°C° 0 mm 6 mps 750 mmHg 34%
    20:00 +34°C° 0 mm 6 mps 750 mmHg 40%
    21:00 +33°C° 0 mm 5 mps 751 mmHg 44%
    22:00 +33°C° 0 mm 5 mps 751 mmHg 47%
    23:00 +32°C° 0 mm 4 mps 751 mmHg 50%

    28 April, Sunday

    Time Temperature Precipitation Wind Pressure Humidity
    00:00 +32°C° 0 mm 4 mps 751 mmHg 52%
    01:00 +32°C° 0 mm 5 mps 750 mmHg 53%
    02:00 +30°C° 0 mm 5 mps 750 mmHg 55%
    03:00 +30°C° 0 mm 5 mps 750 mmHg 57%
    04:00 +30°C° 0 mm 5 mps 749 mmHg 58%
    05:00 +29°C° 0 mm 6 mps 749 mmHg 60%
    06:00 +30°C° 0 mm 6 mps 750 mmHg 54%
    07:00 +32°C° 0 mm 7 mps 750 mmHg 48%
    08:00 +33°C° 0 mm 8 mps 751 mmHg 42%
    09:00 +37°C° 0 mm 8 mps 751 mmHg 34%
    10:00 +39°C° 0 mm 7 mps 750 mmHg 25%
    11:00 +43°C° 0 mm 7 mps 750 mmHg 17%
    12:00 +44°C° 0 mm 7 mps 750 mmHg 16%
    13:00 +44°C° 0 mm 7 mps 749 mmHg 15%
    14:00 +45°C° 0 mm 7 mps 749 mmHg 14%
    15:00 +44°C° 0 mm 7 mps 748 mmHg 16%
    16:00 +43°C° 0 mm 8 mps 748 mmHg 18%
    17:00 +41°C° 0 mm 8 mps 748 mmHg 19%
    18:00 +39°C° 0 mm 8 mps 748 mmHg 24%
    19:00 +36°C° 0 mm 7 mps 749 mmHg 29%
    20:00 +35°C° 0 mm 7 mps 749 mmHg 33%
    21:00 +34°C° 0 mm 6 mps 749 mmHg 36%
    22:00 +33°C° 0 mm 6 mps 750 mmHg 39%
    23:00 +33°C° 0 mm 5 mps 750 mmHg 41%

    29 April, Monday

    Time Temperature Precipitation Wind Pressure Humidity
    00:00 +32°C° 0 mm 5 mps 750 mmHg 45%
    01:00 +32°C° 0 mm 6 mps 749 mmHg 48%
    02:00 +30°C° 0 mm 6 mps 749 mmHg 51%
    03:00 +30°C° 0 mm 6 mps 748 mmHg 54%
    04:00 +29°C° 0 mm 6 mps 748 mmHg 57%
    05:00 +29°C° 0 mm 7 mps 748 mmHg 60%
    06:00 +30°C° 0 mm 6 mps 749 mmHg 54%
    07:00 +32°C° 0 mm 6 mps 749 mmHg 48%
    08:00 +33°C° 0 mm 6 mps 750 mmHg 42%
    09:00 +36°C° 0 mm 6 mps 750 mmHg 34%
    10:00 +39°C° 0 mm 6 mps 750 mmHg 27%
    11:00 +41°C° 0 mm 6 mps 750 mmHg 19%
    12:00 +42°C° 0 mm 6 mps 749 mmHg 17%
    13:00 +44°C° 0 mm 7 mps 748 mmHg 15%
    14:00 +45°C° 0 mm 7 mps 748 mmHg 14%
    15:00 +44°C° 0 mm 7 mps 748 mmHg 16%
    16:00 +43°C° 0 mm 7 mps 747 mmHg 18%
    17:00 +41°C° 0 mm 8 mps 747 mmHg 21%
    18:00 +39°C° 0 mm 7 mps 748 mmHg 29%
    19:00 +36°C° 0 mm 7 mps 748 mmHg 36%
    20:00 +34°C° 0 mm 6 mps 749 mmHg 44%
    21:00 +34°C° 0 mm 6 mps 749 mmHg 46%
    22:00 +33°C° 0 mm 5 mps 749 mmHg 48%
    23:00 +33°C° 0 mm 5 mps 749 mmHg 51%
    Show more